Theta_e
333 342 349 347 348 348 347 345 343 346 346 344 343 346 343 342 343 346 349 350 349 349 348 349 348 348 347 346 345 345 345 344 344 344 345 345 345 345 344 343 343 339 344
338 343 347 348 347 348 346 344 343 346 344 342 342 344 342 342 342 342 346 348 348 347 347 347 346 344 343 343 344 345 343 343 343 342 341 342 343 341 342 341 342 338 341
341 342 345 347 348 348 347 346 345 345 343 342 344 345 341 340 340 340 342 344 346 346 346 345 343 341 342 342 344 343 341 341 340 339 338 332 334 339 339 339 340 339 339
341 341 343 344 348 347 347 347 345 345 344 340 343 343 340 340 338 338 338 340 342 344 344 343 341 340 341 342 343 341 340 338 336 334 330 330 334 338 338 337 338 338 337
339 340 341 344 347 348 348 348 345 344 344 340 341 341 340 339 339 337 336 336 337 339 340 340 339 340 341 343 341 339 338 336 334 331 328 329 329 335 337 336 335 335 336
338 338 340 345 347 347 348 347 346 344 343 341 339 340 340 338 337 337 336 336 336 336 337 337 338 341 339 340 340 338 336 334 330 325 325 328 329 337 336 335 334 334 335
336 338 340 343 345 346 347 347 347 345 343 341 339 338 339 337 337 336 335 335 335 335 336 336 338 339 337 337 337 336 333 330 324 322 323 324 328 335 335 334 332 332 331
336 338 339 336 339 343 345 345 346 345 343 341 339 337 338 339 339 337 335 335 335 334 336 337 339 337 336 335 336 334 332 328 323 321 322 324 334 334 334 333 331 330 330
337 337 335 336 336 335 338 340 342 344 342 341 340 340 337 338 338 338 337 335 334 333 335 336 337 336 334 333 333 332 330 327 320 321 324 325 334 333 332 332 330 328 328
335 335 334 333 334 334 334 333 335 339 339 338 336 334 332 331 332 333 332 335 333 333 333 335 334 333 332 331 331 328 327 325 321 321 323 325 332 330 329 328 327 327 327
334 333 332 332 332 332 332 329 330 332 333 332 330 327 325 326 327 328 329 333 335 333 331 333 332 330 327 326 327 326 324 320 320 321 322 329 329 328 327 327 326 325 324
330 331 332 331 331 331 334 330 330 330 335 331 329 326 325 324 326 327 325 328 331 330 331 332 330 328 323 320 319 322 318 319 319 320 322 328 327 326 325 324 324 324 323
330 332 332 331 331 330 330 328 328 328 330 329 328 326 328 324 323 323 322 322 321 321 321 322 320 317 316 317 318 317 317 318 317 319 322 327 327 325 324 324 324 323 322
329 331 332 332 331 329 329 328 327 327 327 328 327 328 324 321 320 319 319 319 318 317 314 313 313 314 315 316 317 317 317 317 316 317 319 323 327 324 324 324 323 322 322
329 331 331 331 331 331 328 328 327 326 326 329 328 328 330 321 320 319 318 318 318 318 316 314 313 313 314 315 316 316 316 317 317 317 317 318 324 327 325 325 324 324 323
331 331 332 331 332 333 331 328 328 327 327 327 328 327 327 324 322 321 318 318 318 317 317 315 313 313 313 314 315 315 315 316 317 317 317 317 321 326 326 326 326 325 325
327 332 332 331 332 333 333 333 332 332 331 328 330 331 327 326 324 322 319 318 318 317 315 313 312 312 312 313 313 315 315 315 316 317 317 316 317 320 324 327 327 327 327
326 330 332 332 331 331 332 334 334 333 332 331 330 331 330 327 325 322 319 318 318 315 313 311 310 310 310 310 310 311 312 313 314 315 316 316 316 316 319 324 327 327 327
327 328 330 331 330 330 330 332 334 334 333 332 331 330 330 329 327 323 320 319 317 315 312 311 310 310 308 308 309 309 309 309 311 313 313 315 315 315 316 318 320 321 326
326 328 330 330 330 330 329 329 333 333 333 333 332 330 329 329 328 325 323 320 317 314 311 310 309 310 309 307 309 308 308 307 308 309 310 312 314 316 316 315 315 315 317
320 325 328 328 329 328 325 327 326 329 331 332 332 331 329 328 328 326 325 323 321 317 315 314 312 311 309 308 308 307 304 306 306 307 308 309 311 313 313 313 315 315 316
316 320 324 328 328 328 328 328 325 326 329 331 332 331 330 329 328 327 325 324 322 318 316 314 309 306 309 307 307 305 304 307 306 307 306 307 307 309 309 310 311 312 313
302 306 315 323 327 329 328 326 322 324 325 328 329 329 329 328 327 326 325 324 323 320 318 316 313 311 310 308 308 308 303 302 304 306 304 303 304 306 306 305 309 310 310
298 300 300 301 316 325 325 325 324 323 322 323 324 328 329 328 327 326 326 325 324 322 319 318 315 313 312 309 304 307 308 307 303 301 303 302 302 302 302 303 304 305 305
302 302 303 302 300 303 324 325 324 320 321 322 325 326 327 326 326 325 325 324 323 322 321 319 314 313 312 312 308 304 304 303 302 301 298 302 301 301 301 301 301 301 302
302 305 305 305 301 299 303 321 324 320 324 322 321 322 323 324 324 324 323 322 322 320 319 318 317 314 313 312 311 307 305 304 301 299 298 299 300 300 299 299 299 299 299
Wind_Speed
2 5 10 11 11 14 15 15 14 13 14 15 15 17 17 17 16 15 16 17 17 19 20 21 21 21 21 20 20 21 21 22 22 22 20 20 21 21 20 19 15 13 20
7 6 10 11 12 12 15 15 13 13 15 15 15 16 18 17 17 15 17 16 17 19 20 19 20 19 18 16 15 18 20 21 19 18 16 16 18 18 18 18 16 14 18
9 8 8 11 12 14 14 13 13 13 15 16 16 17 19 17 18 16 16 17 17 18 18 18 16 17 16 16 15 18 19 20 18 16 13 6 9 16 17 18 17 16 16
11 7 8 11 11 14 13 12 13 13 14 16 16 17 18 17 17 17 16 15 16 17 16 16 14 16 15 13 17 19 19 20 17 15 7 6 9 16 18 18 19 19 17
10 7 8 12 11 12 11 11 12 13 13 15 15 16 16 17 16 15 16 15 15 15 15 14 13 15 16 16 18 19 20 19 17 12 9 7 5 12 16 16 15 16 14
9 8 8 12 12 11 10 10 12 13 13 14 15 14 15 16 15 15 15 14 14 14 14 14 14 15 15 15 15 19 18 18 13 7 6 8 6 13 14 14 14 15 14
10 6 7 11 11 11 11 10 12 13 13 13 14 14 14 14 15 14 13 13 14 14 13 13 14 14 15 15 16 16 16 14 7 6 6 5 4 11 13 14 13 13 13
13 9 8 9 10 10 10 10 12 13 13 14 13 13 12 11 11 15 13 12 13 13 13 13 12 12 14 14 14 15 13 11 7 6 6 4 7 10 11 10 11 12 11
11 10 8 7 7 9 10 10 10 12 12 12 12 12 11 10 10 14 11 11 11 11 12 10 10 11 13 14 14 11 9 10 6 4 5 3 7 10 10 10 9 9 9
8 8 7 6 6 6 5 8 8 11 11 11 10 10 10 9 10 10 9 9 10 9 9 9 9 9 11 11 10 8 7 7 6 4 4 3 8 8 8 8 8 8 9
6 7 6 6 6 6 5 5 7 8 10 10 8 9 7 4 5 6 7 9 10 8 7 8 7 8 8 9 9 8 7 3 4 3 2 5 5 6 6 5 5 6 6
10 8 8 7 7 6 5 5 5 6 6 4 5 5 4 5 4 5 6 8 8 7 6 5 5 6 6 4 3 5 2 3 2 3 2 4 4 5 4 3 3 4 4
12 9 9 9 7 7 5 4 3 3 3 3 6 5 4 4 3 3 3 3 3 4 1 2 2 2 2 2 2 2 3 2 1 1 3 4 2 2 2 3 3 2 3
11 11 11 10 10 7 5 5 4 4 3 3 4 6 4 3 3 4 3 3 3 2 3 2 0 1 1 2 1 2 2 2 1 0 2 5 4 2 2 3 3 3 4
12 12 12 10 11 9 7 5 4 4 4 5 4 5 4 4 4 3 3 3 3 3 3 3 2 2 1 1 2 2 3 2 1 2 2 6 6 6 6 6 6 6 6
12 12 12 11 11 11 8 8 6 5 6 5 4 4 5 5 5 4 4 4 3 3 3 3 3 2 2 2 3 3 3 3 2 3 3 4 8 9 9 9 9 9 10
12 13 13 12 8 10 10 9 7 7 6 6 6 7 6 5 5 5 4 4 4 4 4 2 1 0 1 2 3 3 3 4 4 4 4 4 5 9 10 12 12 12 12
10 13 13 11 11 9 9 7 5 5 4 6 5 5 7 8 7 5 4 4 4 4 4 3 2 1 2 2 3 4 4 4 5 5 5 4 4 4 7 13 14 15 15
12 13 13 12 12 10 7 6 5 5 4 4 4 4 6 6 5 5 4 4 4 4 3 3 3 2 2 3 4 4 4 4 5 4 7 6 6 5 4 8 12 12 14
11 13 14 12 12 11 7 4 5 4 5 4 4 4 6 5 6 5 4 5 4 3 3 2 4 3 3 3 3 5 4 4 5 6 8 4 5 6 5 5 5 6 12
7 11 14 13 12 9 5 6 4 7 6 5 4 6 7 5 6 6 4 5 5 5 6 5 3 5 3 2 2 3 4 6 6 5 4 4 6 5 5 5 4 4 4
10 9 10 14 13 12 9 8 4 5 3 4 5 6 7 7 7 6 6 6 6 4 5 5 3 2 2 3 2 1 4 5 3 3 2 3 6 3 5 6 6 5 5
6 6 7 7 10 12 11 5 2 3 1 3 4 4 6 8 8 8 7 5 6 5 6 6 6 6 3 2 4 2 2 4 3 2 3 3 4 2 5 5 5 5 5
5 3 4 5 7 7 7 8 9 7 7 5 4 5 6 8 8 8 8 7 7 6 6 6 5 4 4 4 1 4 3 1 2 4 3 3 3 5 6 5 5 5 6
4 3 2 3 3 4 8 9 8 5 4 3 3 5 6 5 7 8 7 7 7 5 6 6 4 6 5 3 4 2 3 3 3 5 4 4 3 4 5 5 5 5 6
3 3 1 3 3 5 5 7 11 9 8 5 3 3 3 4 4 6 6 5 4 4 5 5 5 5 5 4 2 3 3 3 3 4 5 5 6 4 4 5 5 5 5
Wind_Direction
182 150 121 118 108 112 103 95 91 89 92 87 85 86 80 75 74 69 74 81 77 79 76 80 81 78 78 75 75 75 77 76 70 65 63 69 71 70 68 63 61 60 66
139 138 126 118 115 111 106 103 99 94 94 90 90 90 84 79 76 73 67 75 86 84 80 75 78 74 71 70 74 83 82 78 71 65 57 53 68 69 67 63 62 63 62
135 130 122 112 111 119 115 114 107 100 100 95 86 92 85 87 84 78 66 65 75 83 83 83 80 77 69 69 77 87 86 79 68 57 52 49 63 69 69 65 63 66 64
131 127 126 120 116 130 125 122 112 106 101 98 91 89 91 89 89 89 87 72 71 79 84 88 75 73 64 67 85 85 83 77 70 59 44 40 63 64 66 67 63 60 60
123 127 131 126 121 130 127 123 118 111 103 100 96 92 90 91 90 89 90 92 90 83 83 87 80 77 70 79 89 87 83 77 64 55 41 33 33 75 75 70 66 62 57
122 125 136 133 129 127 130 120 124 114 108 102 99 97 93 96 94 91 88 87 88 89 87 87 87 79 71 75 92 95 90 84 72 59 49 31 35 82 82 80 77 73 64
129 127 134 136 131 127 131 120 128 118 113 107 103 100 98 100 103 94 91 92 90 93 90 92 93 85 76 75 87 87 87 85 83 68 51 35 43 80 84 87 80 79 70
137 142 139 136 132 125 123 113 117 123 121 117 113 105 102 93 103 106 97 95 95 94 94 90 91 83 75 69 84 95 93 86 74 72 58 29 64 78 85 78 86 80 80
135 136 137 140 137 131 127 126 122 131 124 115 108 103 97 86 65 101 94 97 98 102 95 88 86 81 79 69 70 77 89 100 87 72 67 32 66 75 76 78 74 76 81
132 135 140 136 136 132 135 131 126 132 124 117 115 114 111 102 91 94 94 94 104 97 102 86 75 68 70 67 60 51 95 87 89 80 69 45 55 65 72 66 70 76 80
139 147 146 146 139 135 133 132 121 120 130 129 130 132 120 119 114 110 127 109 107 105 95 88 70 54 38 35 43 39 86 82 94 82 80 69 63 67 68 73 76 85 84
163 167 163 160 155 148 146 147 136 138 155 150 147 140 133 136 134 115 118 119 118 116 118 102 78 47 24 23 13 31 62 99 109 122 125 92 74 60 75 77 93 95 105
170 166 176 167 164 160 151 154 151 150 157 179 155 164 153 135 125 118 118 116 123 119 101 89 61 15 358 21 3 48 68 104 111 162 164 133 102 81 97 127 125 131 143
174 175 176 175 167 172 156 165 164 158 168 183 181 174 143 140 149 153 154 164 160 168 163 163 201 245 288 337 18 351 53 65 168 230 256 177 178 189 193 195 210 218 213
179 178 184 175 171 173 163 168 170 176 177 188 189 188 163 154 170 164 178 175 183 182 184 193 225 236 257 311 329 339 338 25 101 210 244 240 217 214 225 229 230 231 232
183 184 186 183 177 165 172 174 183 177 184 186 194 200 178 166 169 179 181 202 199 199 211 197 205 215 258 311 300 302 295 298 272 228 231 245 248 237 232 240 244 242 241
186 183 186 186 184 175 174 178 181 187 183 183 194 194 181 185 181 175 182 193 204 202 194 197 220 232 276 285 274 285 278 272 274 265 242 236 249 252 251 246 244 246 250
180 183 186 186 184 181 183 180 186 184 175 185 177 179 187 179 183 184 187 197 195 178 176 176 180 235 266 273 286 278 278 281 275 270 262 244 235 235 248 249 255 253 252
183 179 185 186 186 185 184 179 171 181 180 190 177 173 184 179 181 169 195 213 189 179 180 176 192 178 244 276 274 284 281 275 272 272 263 254 242 243 243 249 252 258 262
187 182 182 186 189 184 180 175 173 188 199 187 194 178 181 181 180 175 186 195 184 174 189 185 199 197 211 238 271 271 263 260 254 247 253 260 255 253 252 246 248 258 257
189 176 181 182 188 175 167 178 192 197 207 205 194 184 182 194 192 184 188 191 174 183 200 195 189 211 229 191 307 305 277 243 247 256 255 248 253 246 259 265 252 245 256
184 190 179 187 182 188 185 190 173 169 167 194 185 192 194 186 202 196 198 200 189 183 193 202 177 172 224 190 195 101 310 324 336 256 273 269 270 276 265 258 262 254 250
165 173 183 188 188 193 187 160 90 89 130 162 195 201 200 194 199 199 202 198 194 184 206 202 187 190 213 173 206 201 264 248 322 310 293 293 275 271 273 270 265 266 269
148 138 148 169 194 192 167 180 186 190 186 203 189 190 191 197 206 203 205 203 204 198 198 208 192 195 163 211 201 234 247 165 245 312 324 316 329 292 286 284 272 268 261
133 150 177 194 197 205 189 184 184 187 183 185 187 185 182 190 203 201 205 201 204 205 209 199 178 190 193 193 188 171 211 208 215 236 270 303 309 264 263 258 266 270 266
47 49 318 197 196 213 206 186 187 180 186 179 187 210 200 183 194 205 198 202 202 198 201 203 210 203 211 214 208 185 196 185 201 200 242 256 264 290 261 272 272 264 267